Scott AFB, IL

7:07 PM CST on February 19, 2017 (GMT -0600)
Scott Air Force Base-Midamerica

Weather History for KBLV - June, 2013

Change the Weather History Date:

Tuesday, June 25, 2013

  Actual Average Record
Temperature  
Mean Temperature 82 °F -  
Max Temperature 92 °F 87 °F 100 °F (1952)
Min Temperature 72 °F 64 °F 47 °F (1979)
Cooling Degree Days 16    
Growing Degree Days 32 (Base 50)    
Moisture  
Dew Point 74 °F    
Average Humidity 77    
Maximum Humidity 99    
Minimum Humidity 56    
Precipitation  
Precipitation 0.00 in - - ()
Sea Level Pressure  
Sea Level Pressure 29.92 in    
Wind  
Wind Speed 8 mph (South)    
Max Wind Speed 17 mph    
Max Gust Speed 22 mph    
Visibility 10 miles    
Events      
Averages and records for this station are not official NWS values.
T = Trace of Precipitation, MM = Missing Value Source: NWS Daily Summary

Daily Weather History Graph

Daily Weather History Graph

Search for Another Location

Airport or City:

Trip Planner

Search our weather history database for the weather conditions in past years. The results will help you decide how hot, cold, wet, or windy it might be!

Date:

Astronomy

Jun. 25, 2013 Rise Set
Actual Time 5:36 AM CDT 8:27 PM CDT
Civil Twilight 5:04 AM CDT 8:59 PM CDT
Nautical Twilight 4:24 AM CDT 9:39 PM CDT
Astronomical Twilight 3:38 AM CDT 10:25 PM CDT
Moon 10:15 PM CDT (6/25) 8:14 AM CDT (6/25)
Length of Visible Light 15h 54m
Length of Day
14h 51m
Waning Gibbous, 92% of the Moon is Illuminated
Jun 25
Waning Gibbous
Jun 29
Last Quarter
Jul 8
New
Jul 15
First Quarter
Jul 22
Full

Hourly Weather History & Observations

Time (CDT) Temp. Heat Index Dew Point Humidity Pressure Visibility Wind Dir Wind Speed Gust Speed Precip Events Conditions
12:58 AM 76.6 °F - 74.5 °F 93% 29.95 in 10.0 mi SSE 5.8 mph - N/A   Mostly Cloudy
1:58 AM 77.0 °F - 74.3 °F 91% 29.96 in 10.0 mi South 2.3 mph - N/A   Clear
2:58 AM 76.6 °F - 73.6 °F 90% 29.96 in 10.0 mi SSE 4.6 mph - N/A   Partly Cloudy
3:58 AM 74.1 °F - 73.8 °F 99% 29.96 in 10.0 mi ESE 3.5 mph - N/A   Clear
4:58 AM 72.7 °F - 72.5 °F 99% 29.97 in 10.0 mi SSE 3.5 mph - N/A   Clear
5:58 AM 72.7 °F - 72.3 °F 99% 29.98 in 10.0 mi SSE 4.6 mph - N/A   Clear
6:58 AM 74.3 °F - 73.2 °F 96% 29.98 in 10.0 mi South 5.8 mph - N/A   Clear
7:58 AM 79.0 °F - 73.4 °F 83% 29.97 in 10.0 mi South 9.2 mph - N/A   Clear
9:57 AM 84.2 °F 90.9 °F 73.4 °F 70% 29.97 in 10.0 mi SW 13.8 mph - N/A   Clear
10:58 AM 87.1 °F 95.9 °F 74.5 °F 66% 29.98 in 10.0 mi SSW 11.5 mph - N/A   Partly Cloudy
11:58 AM 88.9 °F 97.6 °F 73.9 °F 61% 29.98 in 10.0 mi SW 11.5 mph - N/A   Partly Cloudy
12:58 PM 90.0 °F 98.5 °F 73.2 °F 58% 29.95 in 10.0 mi SSW 11.5 mph 17.3 mph N/A   Mostly Cloudy
1:58 PM 91.2 °F 100.2 °F 73.4 °F 56% 29.94 in 10.0 mi South 10.4 mph - N/A   Partly Cloudy
2:58 PM 91.2 °F 101.4 °F 74.5 °F 58% 29.92 in 10.0 mi SSW 12.7 mph - N/A   Partly Cloudy
3:58 PM 91.0 °F 99.8 °F 73.2 °F 56% 29.89 in 10.0 mi SSW 12.7 mph - N/A   Clear
4:55 PM 91.4 °F 102.5 °F 75.2 °F 59% 29.85 in 10.0 mi SSE 16.1 mph - N/A   Clear
4:58 PM 91.4 °F 102.5 °F 75.4 °F 59% 29.85 in 10.0 mi South 15.0 mph - N/A   Clear
5:58 PM 89.2 °F 99.5 °F 75.0 °F 63% 29.81 in 10.0 mi South 17.3 mph 21.9 mph N/A   Clear
6:58 PM 88.0 °F 96.5 °F 74.1 °F 63% 29.83 in 10.0 mi South 10.4 mph - N/A   Clear
7:58 PM 85.8 °F 94.6 °F 74.8 °F 70% 29.84 in 10.0 mi South 10.4 mph - N/A   Clear
8:58 PM 81.5 °F 87.8 °F 75.2 °F 81% 29.86 in 10.0 mi SSE 6.9 mph - N/A   Clear
9:58 PM 79.7 °F - 75.0 °F 86% 29.88 in 10.0 mi South 5.8 mph - N/A   Clear
10:58 PM 78.3 °F - 74.7 °F 89% 29.88 in 10.0 mi SSE 4.6 mph - N/A   Clear
11:58 PM 77.4 °F - 74.8 °F 92% 29.88 in 10.0 mi SSE 4.6 mph - N/A   Clear